Location: Bailleul
(50.3375°N, 2.8513°E)
Time: 09:37:57
(UTC+00:00)

Cosmos 2219 Rocket - Pass Details

Date: 16 June 2021
Orbit: 829 x 846 km, 71.0° (Epoch: 26 July)

Event Time Altitude Azimuth Distance (km) Brightness Sun altitude
Exits shadow 23:05:56 - 223° (SW) 2,772 4.5 -15.7°
Reaches altitude 10° 23:06:45 10° 225° (SW) 2,465 4.3 -15.7°
Maximum altitude 23:12:20 58° 305° (NW) 984 2.8 -15.8°
Drops below altitude 10° 23:17:57 10° 24° (NNE) 2,476 5.5 -16.0°
Sets 23:20:27 0° 29° (NNE) 3,412 6.3 -16.0°
